Theta_e
311 312 315 317 321 321 325 326 325 337 343 343 343 346 347 347 351 353 348 350 351 345 345 346 344 341 336 330 320 320 319 320 320 320 320 322 323 324 324 325 325 324 324 324 324 324 325 324 324
311 313 314 318 321 325 325 323 326 327 333 341 342 343 346 344 343 346 346 345 348 344 345 346 345 342 337 333 321 320 321 321 321 321 321 322 324 324 324 325 327 326 326 326 327 327 327 328 330
312 312 317 314 317 323 324 323 325 335 339 343 340 341 344 345 341 342 348 340 345 344 344 345 345 342 337 335 325 320 321 322 323 322 322 323 324 323 324 325 326 328 329 329 330 329 329 329 330
311 311 318 320 319 320 322 323 337 341 341 344 340 347 348 349 350 347 348 341 344 344 344 344 345 343 338 337 330 321 321 322 323 323 323 323 323 323 323 324 325 326 327 329 330 331 330 330 330
312 312 311 318 321 321 321 324 325 326 339 343 344 346 346 350 353 350 348 343 344 344 343 343 344 343 338 338 334 327 321 322 323 323 323 323 322 322 322 322 323 324 325 326 328 329 332 332 331
312 310 307 313 317 320 322 324 324 323 325 341 340 341 341 346 352 351 349 344 345 342 343 342 344 343 339 338 336 332 325 321 322 323 322 322 322 322 322 322 322 322 323 324 324 325 327 330 331
309 305 308 309 311 313 319 321 320 321 325 340 339 339 338 345 351 352 351 345 341 341 342 340 341 343 340 339 338 335 331 325 321 322 323 323 323 322 322 322 321 321 321 322 322 322 323 323 323
312 308 311 308 311 310 314 315 317 319 321 326 339 347 348 343 351 353 351 341 340 340 337 335 340 343 341 340 339 337 333 330 323 322 323 323 323 323 323 323 322 322 322 322 322 322 321 322 322
311 309 310 310 311 312 314 315 318 319 335 345 340 346 345 349 351 348 341 340 337 335 334 333 338 342 342 341 340 339 336 333 326 322 323 324 324 324 324 324 323 322 321 322 322 323 323 323 323
308 305 309 310 311 314 314 316 318 319 347 351 347 345 349 350 350 344 338 336 334 332 332 333 338 341 341 341 340 339 338 336 329 323 322 323 324 325 324 324 325 323 323 323 322 321 321 321 321
310 308 309 311 313 315 314 316 318 317 339 349 337 348 349 350 348 341 335 333 333 330 327 331 336 339 340 340 340 338 338 334 329 323 322 323 323 325 324 323 325 327 335 336 335 335 324 326 325
313 313 313 312 314 313 314 315 315 317 317 332 346 346 349 347 344 338 335 333 332 329 326 327 331 335 338 338 337 334 331 328 324 322 323 323 322 322 323 325 330 337 337 337 338 339 337 335 334
312 314 316 316 314 314 313 314 314 316 317 318 334 346 347 345 341 336 333 332 332 330 327 325 328 333 333 333 330 326 323 322 321 322 322 321 320 320 321 326 337 339 338 338 338 339 339 338 337
312 312 313 315 316 316 312 313 315 317 318 319 336 345 347 345 343 342 341 339 334 332 329 326 324 324 325 325 323 321 321 321 322 322 321 323 323 323 322 331 336 336 338 340 339 338 338 338 338
316 315 313 312 315 314 314 313 314 316 317 317 345 346 345 345 345 343 343 344 342 335 331 328 327 326 327 327 327 326 328 331 337 343 345 346 346 345 334 336 342 341 342 343 342 342 337 336 336
317 313 314 314 314 315 314 313 314 316 317 318 340 346 345 345 345 345 344 345 344 337 332 331 330 330 333 334 343 343 341 345 346 346 346 347 347 347 347 347 347 346 345 345 344 344 339 339 339
314 316 314 317 314 314 313 313 314 316 317 333 347 346 344 345 347 346 345 345 345 341 335 334 335 335 338 342 344 346 344 347 348 348 347 347 348 348 348 348 347 348 348 348 341 341 335 336 340
315 315 314 316 315 315 312 312 312 316 318 343 344 343 344 346 348 347 346 346 346 346 346 342 341 342 342 343 344 346 345 348 351 350 350 348 348 347 347 348 349 350 350 340 337 337 338 340 340
315 317 320 317 315 313 313 314 313 314 322 338 345 342 346 349 348 348 348 348 346 346 347 346 345 345 344 346 347 348 348 349 352 351 350 349 348 348 348 350 350 345 340 339 337 338 337 336 337
315 317 319 319 318 312 312 313 313 314 315 333 342 339 340 342 345 346 346 344 346 346 346 345 344 345 343 345 340 346 347 346 348 349 350 348 348 347 346 346 344 344 345 342 339 336 336 341 341
313 316 318 320 319 315 313 314 314 314 316 318 341 342 338 341 338 342 345 344 344 344 343 342 336 335 345 336 333 344 347 346 346 345 346 349 349 347 345 345 345 342 342 342 341 341 341 340 341
312 313 317 319 321 316 313 314 314 314 314 315 320 335 337 336 339 340 343 346 344 335 336 336 333 332 337 335 334 344 346 346 346 346 346 347 346 344 343 341 341 343 343 342 342 339 338 335 336
311 316 316 318 320 316 314 314 316 313 314 314 315 334 341 338 340 341 346 345 337 333 336 331 338 333 337 342 346 347 347 346 344 343 344 342 342 343 342 343 342 340 339 337 337 334 333 331 330
313 315 317 318 318 316 315 314 313 314 315 313 313 336 343 344 346 345 346 341 336 335 339 336 332 337 345 345 346 346 346 345 342 341 343 344 343 341 339 337 335 333 331 330 328 324 322 320 318
310 318 323 323 321 317 314 314 313 316 313 314 314 327 346 347 346 344 343 339 339 341 344 343 342 345 345 342 342 344 343 341 340 342 342 341 338 334 332 331 330 329 325 321 318 314 311 310 309
313 316 324 326 322 315 314 316 316 314 315 318 319 325 345 348 346 346 344 343 341 335 339 348 347 344 343 342 342 341 339 339 339 338 335 334 332 331 331 330 329 327 316 311 310 309 308 308 308
316 318 316 317 314 313 313 315 317 315 315 315 316 322 338 345 347 348 348 345 338 341 346 339 340 340 342 341 340 339 337 335 334 334 333 331 331 330 325 319 313 311 309 308 307 308 308 308 307
315 316 321 315 314 316 314 316 315 316 316 315 313 318 331 336 338 339 345 345 343 343 342 342 340 340 340 339 338 337 333 333 332 330 329 327 323 315 311 309 308 307 308 308 308 307 306 306 306
315 315 319 313 312 314 314 315 313 315 315 315 319 334 335 337 338 341 341 343 343 342 342 340 340 339 340 338 336 333 332 331 329 326 320 312 309 308 307 307 307 308 308 308 306 306 306 306 306
315 320 317 315 317 315 313 314 329 313 313 322 333 335 337 338 338 338 339 342 342 341 340 340 339 338 336 333 329 328 325 316 311 310 309 307 306 306 307 308 308 309 307 305 306 306 306 306 309
Wind_Speed
12 12 8 3 2 4 3 7 3 2 3 5 6 4 4 0 7 4 13 20 33 39 36 33 29 25 22 19 21 23 24 24 23 22 21 20 18 16 16 16 16 15 15 15 14 13 12 11 11
10 9 5 3 4 3 5 5 6 4 4 6 6 7 3 2 2 0 4 25 33 37 36 33 30 27 23 20 21 24 24 23 23 23 22 20 19 17 17 16 16 15 14 13 13 12 11 10 11
9 11 7 4 4 8 5 6 9 2 3 5 3 1 5 10 4 14 11 32 38 37 35 33 31 28 24 22 21 23 24 23 22 22 22 21 19 17 16 15 15 14 13 12 11 10 9 9 9
7 7 3 4 10 7 8 7 7 4 3 0 2 5 8 11 9 21 24 35 42 39 35 33 32 29 25 23 22 23 23 23 22 21 20 19 17 16 15 14 13 12 11 10 8 7 7 7 6
10 4 2 4 10 5 5 10 4 3 2 2 3 3 10 11 7 15 34 35 44 40 36 33 32 31 27 24 22 22 23 22 21 20 19 17 16 15 14 13 12 10 9 8 6 6 5 5 5
6 2 2 10 8 8 6 10 6 3 7 7 5 6 5 13 9 17 33 36 40 38 36 34 32 31 28 25 22 21 21 21 20 19 17 16 14 13 12 11 10 9 8 7 5 5 5 5 5
6 4 5 4 13 13 2 11 11 7 7 10 18 4 6 13 11 22 32 38 39 37 36 34 33 31 28 26 23 21 20 20 19 18 17 16 14 12 10 9 8 7 6 5 5 5 6 6 6
6 4 4 7 8 6 5 11 13 7 14 21 34 8 8 24 21 30 35 40 38 37 35 35 35 34 31 27 24 22 20 18 18 18 17 15 13 11 9 7 5 4 4 4 4 4 5 6 7
9 2 6 6 7 3 5 4 2 4 9 6 28 18 20 30 32 35 39 39 38 37 36 36 37 34 31 28 25 22 20 18 18 18 17 15 13 10 8 6 5 5 4 4 5 5 5 6 7
5 4 7 6 5 2 5 4 7 6 0 3 6 13 30 40 37 39 44 43 41 39 38 38 37 35 33 30 28 25 22 19 17 17 17 15 13 10 8 7 5 4 3 4 6 7 7 8 9
5 5 8 5 6 8 5 4 7 5 5 13 25 31 43 39 39 41 44 43 41 37 36 37 37 35 33 31 29 26 23 19 17 16 16 15 13 11 9 8 5 3 4 5 5 8 9 10 11
4 5 9 4 8 6 4 7 8 12 11 3 25 38 43 41 41 44 42 42 39 34 31 32 32 32 31 29 28 24 22 19 17 15 15 14 13 11 10 7 5 3 3 5 7 9 8 8 8
4 3 10 8 12 22 9 10 9 23 24 17 19 32 43 47 44 40 38 37 36 32 29 28 28 28 27 25 23 22 20 18 15 14 14 13 12 12 11 9 8 6 6 7 9 11 11 11 12
6 10 9 8 11 13 2 7 10 19 15 7 30 40 46 49 47 42 40 38 37 33 31 26 24 23 22 21 19 18 17 15 13 11 9 8 8 9 11 8 8 8 8 8 11 14 15 17 18
8 7 8 6 4 6 8 8 20 34 18 21 34 48 37 37 39 44 40 36 31 30 29 26 22 20 18 16 15 15 13 12 12 9 8 5 3 2 3 6 8 11 12 12 14 16 17 20 18
4 2 4 3 10 8 9 18 6 23 14 22 39 40 31 30 35 38 36 34 32 30 30 25 23 20 17 15 13 11 13 13 11 10 7 4 2 4 5 6 7 10 13 14 17 19 19 20 21
3 3 6 3 10 7 14 7 8 25 14 18 33 34 35 30 28 33 33 33 31 27 28 29 26 23 21 18 15 12 14 13 13 11 10 9 8 7 9 11 10 12 15 18 20 20 21 23 23
5 3 3 8 6 17 7 9 9 8 17 21 30 29 35 33 32 31 30 29 32 31 26 26 25 24 23 22 21 18 16 14 10 9 5 6 7 8 12 14 13 16 19 18 16 19 19 22 26
10 10 7 7 6 5 14 1 13 11 5 14 25 27 34 37 36 31 27 26 31 32 31 29 28 27 26 19 13 21 20 19 11 5 5 7 8 9 10 12 13 17 17 16 15 16 19 22 23
8 8 12 13 14 6 4 14 11 6 5 22 25 26 32 36 34 31 29 27 23 25 25 28 25 27 24 14 21 23 25 21 16 12 10 9 7 6 6 8 11 13 15 15 15 20 22 21 20
8 10 9 8 12 6 4 1 5 6 6 17 30 39 36 41 40 36 30 24 20 19 27 24 31 26 19 21 26 30 30 21 17 14 12 11 10 10 11 13 16 18 19 19 20 19 17 17 16
10 7 13 11 6 4 8 4 7 6 7 7 15 25 36 40 39 36 32 27 21 15 20 22 26 22 25 24 31 34 16 11 4 8 6 11 10 11 13 12 11 13 15 15 13 13 13 13 15
6 4 8 8 9 6 4 3 11 8 6 7 8 26 37 42 39 39 34 28 22 24 17 4 21 10 15 19 21 17 7 1 8 4 5 12 11 9 9 7 7 9 10 10 11 14 15 13 14
3 4 8 6 2 3 8 8 4 7 12 5 7 26 32 41 40 38 35 31 27 24 12 12 21 15 11 8 9 5 3 2 2 4 5 3 2 3 5 6 7 9 11 12 14 15 15 14 14
7 4 5 5 5 5 7 5 7 17 12 9 10 28 31 45 41 39 37 31 27 21 17 18 19 12 11 12 10 6 3 1 1 2 3 3 3 6 11 13 14 15 14 12 12 13 14 15 16
4 8 3 4 6 4 5 8 5 11 14 25 26 38 39 40 41 37 38 33 30 25 21 20 22 22 15 12 10 9 7 8 7 7 5 7 8 11 11 15 15 13 13 14 15 16 16 16 16
7 5 5 4 5 3 5 4 3 11 10 9 19 33 34 33 36 36 34 35 34 32 29 25 21 16 13 11 10 11 10 9 8 5 6 9 10 10 9 10 10 11 13 15 16 16 16 15 14
5 6 7 4 6 6 3 3 8 10 13 10 10 17 27 32 33 34 36 38 39 36 30 25 23 21 18 14 10 8 7 5 5 4 4 4 6 6 7 9 11 12 12 13 14 13 12 12 13
3 2 9 3 3 5 4 4 6 12 10 14 11 24 35 37 37 37 39 40 41 36 32 29 24 21 18 13 10 6 4 3 3 2 2 3 4 5 8 9 10 11 12 12 11 10 11 11 11
3 4 6 1 2 0 4 3 4 11 11 18 22 28 29 38 40 40 42 44 43 40 36 31 26 21 17 13 8 6 7 5 2 0 2 4 4 4 6 8 9 11 11 11 9 10 10 10 10
Wind_Direction
227 232 245 194 62 71 228 245 264 342 153 168 178 175 188 352 153 212 341 183 178 173 168 169 167 166 163 159 158 158 155 155 154 154 153 152 153 150 145 140 134 131 130 127 126 126 122 123 131
210 214 204 152 130 174 237 225 231 196 309 165 147 156 219 219 181 23 239 173 179 174 171 170 168 169 165 161 159 158 156 155 157 155 155 155 154 152 149 145 141 138 134 129 128 131 134 137 138
188 182 161 154 181 204 221 181 217 4 177 154 229 102 4 326 106 257 231 180 182 178 174 171 170 171 169 164 161 160 158 157 158 158 157 157 156 154 152 152 152 150 144 142 144 146 148 149 154
167 170 161 153 223 243 178 168 122 116 170 110 289 81 325 350 270 215 201 184 184 179 175 173 173 174 174 169 164 163 163 161 160 160 161 160 157 156 158 159 161 162 160 156 159 161 162 161 167
179 166 163 222 246 238 198 246 313 129 133 11 308 278 319 327 253 198 182 184 183 179 175 176 176 178 177 174 169 165 167 167 165 163 164 163 162 163 162 163 167 170 175 179 181 185 187 189 194
166 139 126 219 243 242 216 183 222 190 254 171 157 165 296 289 257 180 176 184 185 181 176 177 178 180 180 178 175 170 170 172 171 168 167 165 166 165 167 171 174 179 189 196 205 217 225 230 237
146 117 212 215 238 254 169 191 211 169 204 216 180 118 241 268 225 192 187 184 185 180 180 179 180 181 184 184 181 177 175 176 178 175 174 172 170 168 170 175 178 189 203 218 231 244 254 261 266
197 120 212 218 209 278 173 237 258 194 223 252 188 180 212 221 196 186 186 183 185 182 183 183 182 183 185 186 187 185 182 181 183 185 185 181 177 176 176 176 187 193 217 233 248 261 268 274 276
193 180 223 213 191 203 58 82 33 289 185 185 182 221 204 189 185 181 179 182 185 184 185 185 185 185 186 188 189 192 191 190 191 194 192 191 189 185 184 187 197 215 235 257 271 284 297 299 296
177 193 216 200 192 222 42 71 342 359 304 170 188 215 191 173 181 184 182 185 187 186 186 187 186 186 187 190 194 196 198 200 200 200 201 200 201 203 201 207 216 244 276 306 313 315 307 304 301
198 208 226 264 295 301 126 339 306 303 233 171 208 162 173 174 182 187 187 190 190 190 190 189 188 189 190 194 197 201 204 206 207 207 209 210 212 218 224 232 232 243 307 341 342 331 311 314 303
264 220 250 259 279 301 75 349 312 270 246 272 217 194 177 180 186 186 187 191 190 193 193 192 192 192 194 198 202 206 207 210 212 212 212 217 224 233 243 254 256 261 294 310 322 322 326 332 327
236 274 288 288 270 273 266 262 255 277 270 259 230 186 185 185 187 186 188 189 192 193 195 194 192 194 198 202 206 208 209 210 211 215 217 221 230 236 245 249 263 269 298 314 317 316 310 302 304
306 290 273 270 266 266 251 257 242 255 251 292 194 193 189 192 187 184 186 187 190 193 191 194 193 196 200 203 208 211 210 206 207 210 216 227 236 245 254 260 286 287 289 312 306 299 297 296 296
284 308 288 232 189 231 193 262 232 245 245 268 200 194 193 192 191 191 190 189 188 194 192 191 193 197 202 205 210 212 207 205 192 172 170 173 165 92 223 258 298 309 306 299 299 305 300 298 296
304 222 248 254 169 227 156 256 259 250 243 266 204 189 188 183 192 194 192 191 189 189 189 191 191 196 202 207 195 200 199 197 198 191 189 178 201 257 269 281 302 303 303 299 293 294 287 287 287
309 247 218 322 192 184 192 251 252 257 242 223 179 177 179 174 178 189 190 193 189 187 186 189 195 196 201 208 214 218 216 229 229 226 226 240 251 261 264 274 286 293 294 299 293 287 286 287 289
209 219 279 196 218 206 216 236 287 305 194 185 174 171 171 168 173 179 188 193 195 192 191 193 190 195 201 211 237 235 232 241 236 230 222 245 265 255 270 278 283 288 290 290 291 291 288 289 292
305 310 317 317 230 211 225 195 257 281 150 159 160 158 160 161 169 175 183 190 196 198 198 197 198 198 199 215 265 241 227 225 227 226 265 298 299 300 297 275 276 284 285 290 292 298 298 302 298
270 288 286 292 266 229 191 215 231 231 216 179 167 150 155 160 162 169 180 192 199 212 206 211 219 215 211 227 298 237 231 234 241 255 258 268 290 304 296 274 273 278 290 290 298 304 299 302 306
249 232 259 256 322 269 136 271 196 227 239 186 185 164 167 164 162 171 178 183 184 199 208 218 237 226 198 175 212 231 236 235 231 232 233 244 259 278 280 279 283 299 299 298 290 306 313 315 317
255 255 241 259 296 241 171 210 215 192 189 171 170 166 168 171 170 176 180 186 195 188 203 223 243 226 204 247 215 250 230 238 205 198 230 256 282 297 294 291 284 286 291 303 311 323 327 329 321
242 254 246 252 265 332 220 99 202 145 165 189 173 173 174 179 181 183 187 186 183 178 187 162 180 202 180 218 259 232 218 214 245 271 292 300 289 282 298 298 305 310 309 320 323 321 318 321 323
267 282 251 226 173 251 234 169 228 168 186 160 144 175 184 173 179 182 184 186 178 174 164 147 177 195 221 251 249 254 67 88 345 306 292 270 273 313 345 3 8 359 349 343 343 341 335 330 320
198 85 185 189 190 220 196 155 213 197 146 156 156 168 178 170 175 177 178 171 169 162 158 163 177 173 172 169 148 134 116 109 192 170 165 125 60 46 36 18 5 355 348 345 336 328 324 321 321
155 155 269 125 168 178 181 198 240 157 152 164 168 172 172 177 175 177 174 163 152 156 159 158 165 167 163 153 138 127 127 124 127 100 85 66 39 20 9 346 338 336 331 331 330 329 327 328 327
141 174 225 297 245 123 189 245 74 136 134 148 149 165 172 169 170 170 166 164 156 165 167 173 167 157 158 149 137 123 110 112 90 80 31 5 355 345 345 339 335 333 332 332 332 333 336 342 344
171 74 230 219 150 168 244 149 167 147 160 162 137 127 151 149 152 154 159 159 161 159 158 162 161 155 152 148 137 122 116 93 77 45 17 347 344 339 326 332 340 339 338 341 348 353 360 4 9
124 208 223 253 175 165 132 215 216 165 172 153 117 124 139 139 141 139 153 157 157 155 154 157 157 155 148 144 140 136 121 91 48 11 9 319 320 328 333 337 341 345 353 359 5 11 17 11 9
126 241 280 232 116 248 133 266 42 156 150 119 123 125 129 132 138 149 153 152 149 151 150 149 150 146 141 140 141 135 119 113 123 46 333 338 344 348 354 358 357 7 11 17 16 16 8 10 10